Winfield, KS

3:30 PM CST on December 10, 2019 (GMT -0600)
Strother

Weather History for KWLD - August, 2019

Change the Weather History Date:

Thursday, August 29, 2019

  Actual Average Record
Temperature  
Mean Temperature 81 °F -  
Max Temperature 91 °F 89 °F 99 °F (2013)
Min Temperature 71 °F 66 °F 55 °F (2017)
Cooling Degree Days 16    
Growing Degree Days 31 (Base 50)    
Moisture  
Dew Point 72 °F    
Average Humidity 78    
Maximum Humidity 93    
Minimum Humidity 59    
Precipitation  
Precipitation 0.00 in - - ()
Sea Level Pressure  
Sea Level Pressure 29.97 in    
Wind  
Wind Speed 8 mph ()    
Max Wind Speed 14 mph    
Max Gust Speed 23 mph    
Visibility 10.0 miles    
Events      
Averages and records for this station are not official NWS values.
T = Trace of Precipitation, MM = Missing Value Source: Averaged Metar Reports

Daily Weather History Graph

Daily Weather History Graph

Search for Another Location

Airport or City:

Astronomy

Aug. 29, 2019 Rise Set
Actual Time 6:56 AM CDT 8:01 PM CDT
Civil Twilight 6:29 AM CDT 8:28 PM CDT
Nautical Twilight 5:57 AM CDT 8:59 PM CDT
Astronomical Twilight 5:24 AM CDT 9:32 PM CDT
Moon 5:45 AM CDT (8/29) 7:57 PM CDT (8/29)
Length of Visible Light 13h 58m
Length of Day
13h 05m
Waning Crescent, 1% of the Moon is Illuminated
Aug 29
Waning Crescent
Aug 30
New
Sep 5
First Quarter
Sep 13
Full
Sep 21
Last Quarter

Hourly Weather History & Observations

Time (CDT) Temp. Heat Index Dew Point Humidity Pressure Visibility Wind Dir Wind Speed Gust Speed Precip Events Conditions
12:54 AM 71.1 °F - 66.0 °F 84% 30.01 in 10.0 mi SSE 5.8 mph - N/A   Clear
1:54 AM 72.0 °F - 69.1 °F 91% 30.01 in 10.0 mi South 8.1 mph - N/A   Clear
2:54 AM 73.0 °F - 70.0 °F 90% 30.00 in 10.0 mi South 9.2 mph - N/A   Clear
3:54 AM 73.0 °F - 70.0 °F 90% 29.99 in 10.0 mi South 8.1 mph - N/A   Mostly Cloudy
4:54 AM 72.0 °F - 70.0 °F 93% 29.99 in 10.0 mi South 8.1 mph - N/A   Mostly Cloudy
5:54 AM 73.0 °F - 70.0 °F 90% 29.99 in 10.0 mi South 8.1 mph - N/A   Scattered Clouds
6:54 AM 72.0 °F - 70.0 °F 93% 30.00 in 10.0 mi SSE 5.8 mph - N/A   Clear
7:54 AM 73.0 °F - 71.1 °F 93% 30.01 in 9.0 mi SSE 5.8 mph - N/A   Clear
8:54 AM 77.0 °F - 72.0 °F 84% 30.01 in 10.0 mi South 12.7 mph 19.6 mph N/A   Clear
9:54 AM 80.1 °F 84.2 °F 73.0 °F 79% 30.01 in 10.0 mi South 12.7 mph 19.6 mph N/A   Clear
10:54 AM 82.9 °F 89.4 °F 73.9 °F 74% 30.01 in 10.0 mi SSW 13.8 mph - N/A   Clear
11:54 AM 84.9 °F 92.1 °F 73.9 °F 69% 30.00 in 10.0 mi South 11.5 mph - N/A   Partly Cloudy
12:54 PM 87.1 °F 95.4 °F 73.9 °F 65% 29.98 in 10.0 mi SSW 11.5 mph - N/A   Partly Cloudy
1:54 PM 89.1 °F 98.0 °F 73.9 °F 61% 29.95 in 10.0 mi South 9.2 mph - N/A   Partly Cloudy
2:54 PM 89.1 °F 97.0 °F 73.0 °F 59% 29.94 in 10.0 mi South 12.7 mph - N/A   Mostly Cloudy
3:54 PM 91.0 °F 102.9 °F 75.9 °F 61% 29.92 in 10.0 mi South 10.4 mph - N/A   Scattered Clouds
4:54 PM 88.0 °F 96.5 °F 73.9 °F 63% 29.92 in 10.0 mi SSE 11.5 mph - N/A   Mostly Cloudy
5:54 PM 88.0 °F 96.5 °F 73.9 °F 63% 29.91 in 10.0 mi SSE 12.7 mph 21.9 mph N/A   Clear
6:54 PM 86.0 °F 93.0 °F 73.0 °F 65% 29.90 in 10.0 mi SSE 12.7 mph 23.0 mph N/A   Clear
7:54 PM 82.9 °F 88.8 °F 73.0 °F 72% 29.91 in 10.0 mi SE 5.8 mph - N/A   Clear
8:54 PM 81.0 °F 86.2 °F 73.9 °F 79% 29.94 in 10.0 mi SE 5.8 mph - N/A   Scattered Clouds
9:54 PM 80.1 °F 84.5 °F 73.9 °F 81% 29.93 in 10.0 mi SSE 9.2 mph - N/A   Partly Cloudy
10:54 PM 79.0 °F - 73.9 °F 84% 29.93 in 10.0 mi SSE 11.5 mph - N/A   Clear
11:54 PM 80.1 °F 84.2 °F 73.0 °F 79% 29.94 in 10.0 mi South 11.5 mph 21.9 mph N/A   Clear